SCP
0 0 0 0 0 0 0 0 0 0 0 0 0 0 0 0 0 0 0 0 0 0 0 0 1 3 4 4 5 5 5 5 4 4 4 3 3 3 2 1 0 0 0 0
0 0 0 0 0 0 0 0 0 0 0 0 0 0 0 0 0 0 0 0 0 0 0 0 1 3 4 4 5 5 5 5 4 4 4 3 3 3 2 1 0 0 0 0
0 0 0 0 0 0 0 0 0 0 0 0 0 0 0 0 0 0 0 0 0 0 0 0 1 3 4 5 5 6 5 5 4 4 4 3 3 2 2 1 1 0 0 0
0 0 0 0 0 0 0 0 0 0 0 0 0 0 0 0 0 0 0 0 0 0 0 0 1 3 5 6 6 6 6 5 5 4 4 4 3 2 2 1 1 0 0 1
0 0 0 0 0 0 0 0 0 0 0 0 0 0 0 0 0 0 0 0 0 0 0 0 1 3 6 7 6 6 6 6 5 5 4 4 3 2 2 2 1 1 0 1
0 0 0 0 0 0 0 0 0 0 0 0 0 0 0 0 0 0 0 0 0 0 0 0 1 3 4 5 5 5 5 5 5 5 5 4 4 3 2 2 1 1 1 1
0 0 0 0 0 0 0 0 0 0 0 0 0 0 0 0 0 0 0 0 0 0 0 0 1 2 2 2 2 3 3 4 4 5 5 4 4 3 3 2 2 1 1 1
0 0 0 0 0 0 0 0 0 0 0 0 0 0 0 0 0 0 0 0 0 0 0 0 1 1 1 1 1 1 1 2 3 3 4 4 4 4 3 3 2 2 1 1
0 0 0 0 0 0 0 0 0 0 0 0 0 0 0 0 0 0 0 0 0 0 0 0 1 1 1 1 0 0 0 0 1 2 3 3 4 4 4 3 2 2 2 1
0 0 0 0 0 0 0 0 0 0 0 0 0 0 0 0 0 0 0 0 0 0 0 0 0 1 1 1 0 0 0 0 0 0 1 2 2 3 4 3 3 2 2 2
0 0 0 0 0 0 0 0 0 0 0 0 0 0 0 0 0 0 0 0 0 0 0 0 0 1 1 0 0 0 0 0 0 0 0 0 1 2 3 3 3 3 2 2
0 0 0 0 0 0 0 0 0 0 0 0 0 0 0 0 0 0 0 0 0 0 0 0 0 0 0 0 0 0 0 0 0 0 0 0 0 1 1 2 2 2 2 2
0 0 0 0 0 0 0 0 0 0 0 0 0 0 0 0 0 0 0 0 0 0 0 0 0 0 0 0 0 0 0 0 0 0 0 0 0 0 1 1 1 1 1 1
0 0 0 0 0 0 0 0 0 0 0 0 0 0 0 0 0 0 0 0 0 0 0 0 0 0 0 0 0 0 0 0 0 0 0 0 0 0 0 0 0 0 0 0
0 0 0 0 0 0 0 0 0 0 0 0 0 0 0 0 0 0 0 0 0 0 0 0 0 0 0 0 0 0 0 0 0 0 0 0 0 0 0 0 0 0 0 0
0 0 0 0 0 0 0 0 0 0 0 0 0 0 0 0 0 0 0 0 0 0 0 0 0 0 0 0 0 0 0 0 0 0 0 0 0 0 0 0 0 0 0 0
0 0 0 0 0 0 0 0 0 0 0 0 0 0 0 0 0 0 0 0 0 0 0 0 0 0 0 0 0 0 0 0 0 0 0 0 0 0 0 0 0 0 0 0
0 0 0 0 0 0 0 0 0 0 0 0 0 0 0 0 0 0 0 0 0 0 0 0 0 0 0 0 0 0 0 0 0 0 0 0 0 0 0 0 0 0 0 0
0 0 0 0 0 0 0 0 0 0 0 0 0 0 0 0 0 0 0 0 0 0 0 0 0 0 0 0 0 0 0 0 0 0 0 0 0 0 0 0 0 0 0 0
0 0 0 0 0 0 0 0 0 0 0 0 0 0 0 0 0 0 0 0 0 0 0 0 0 0 0 0 0 0 0 0 0 0 0 0 0 0 0 0 0 0 0 0
0 0 0 0 0 0 0 0 0 0 0 0 0 0 0 0 0 0 0 0 0 0 0 0 0 0 0 0 0 0 0 0 0 0 0 0 0 0 0 0 0 0 0 0
0 0 0 0 0 0 0 0 0 0 0 0 0 0 0 0 0 0 0 0 0 0 0 0 0 0 0 0 0 0 0 0 0 0 0 0 0 0 0 0 0 0 0 0
0 0 0 0 0 0 0 0 0 0 0 0 0 0 0 0 0 0 0 0 0 0 0 0 0 0 0 0 0 0 0 0 0 0 0 0 0 0 0 0 0 0 0 0
0 0 0 0 0 0 0 0 0 0 0 0 0 0 0 0 0 0 0 0 0 0 0 0 0 0 0 0 0 0 0 0 0 0 0 0 0 0 0 0 0 0 0 0
0 0 0 0 0 0 0 0 0 0 0 0 0 0 0 0 0 0 0 0 0 0 0 0 0 0 0 0 0 0 0 0 0 0 0 0 0 0 0 0 0 0 0 0
0 0 0 0 0 0 0 0 0 0 0 0 0 0 0 0 0 0 0 0 0 0 0 0 0 0 0 0 0 0 0 0 0 0 0 0 0 0 0 0 0 0 0 0
Wind_Speed
2 1 2 3 5 5 6 6 8 7 4 5 8 11 8 4 4 4 4 4 3 2 2 1 2 1 2 2 2 1 1 1 1 1 1 1 1 1 2 1 1 2 2 2
1 3 4 5 5 6 6 7 7 6 4 6 8 11 8 6 6 4 3 3 2 3 2 1 1 1 2 2 2 1 1 1 1 1 1 1 2 2 2 1 1 1 2 2
3 2 3 4 5 5 6 6 5 6 8 7 7 8 5 2 2 1 1 2 2 3 2 2 2 1 2 2 2 2 1 1 1 1 1 1 1 1 1 1 1 1 2 2
2 3 3 3 4 5 6 4 5 6 5 4 2 6 4 3 2 1 1 1 1 2 2 2 2 2 2 2 2 2 1 1 1 1 1 1 2 2 2 1 1 1 1 1
2 2 3 3 4 6 5 6 6 7 6 6 5 5 6 2 2 2 1 1 1 2 2 2 2 2 1 1 1 1 1 1 1 1 1 1 2 1 1 1 1 1 1 1
3 1 2 3 5 4 5 6 6 5 2 5 6 5 5 1 2 1 0 2 2 3 3 3 2 2 2 2 0 1 1 1 1 1 1 1 2 1 1 1 1 0 1 1
2 2 1 1 3 2 3 2 2 2 3 6 3 3 4 1 3 2 2 3 4 4 4 3 3 2 2 2 1 1 1 1 1 0 1 1 2 2 2 2 1 1 1 1
2 2 2 0 1 2 3 2 1 2 3 3 2 4 2 2 4 5 4 4 4 5 4 4 2 2 1 2 2 1 1 1 1 0 1 1 2 1 1 1 1 2 2 1
2 3 1 1 1 2 2 1 2 2 3 4 5 2 1 3 3 4 5 5 5 5 5 5 3 2 2 2 2 1 1 1 1 1 1 1 1 1 1 1 1 1 1 1
2 3 3 1 1 1 3 3 1 1 3 4 5 2 1 1 3 4 5 6 6 5 6 5 4 3 2 2 1 1 1 1 1 1 1 2 2 1 1 1 1 2 2 2
2 2 3 1 2 2 1 1 1 2 3 3 4 3 2 1 1 3 4 5 5 5 5 5 4 4 3 2 2 2 2 2 2 1 1 2 2 2 1 1 1 1 1 1
1 1 3 3 1 0 1 1 1 1 4 3 3 5 1 3 2 3 4 5 5 5 4 4 4 5 4 3 2 3 2 2 2 1 1 2 2 2 2 2 2 1 1 1
0 1 2 2 1 1 1 2 1 2 2 3 4 5 1 4 4 4 4 5 5 5 5 5 5 4 4 3 3 3 2 2 2 2 2 2 2 2 3 2 2 2 2 2
1 2 4 5 3 2 4 4 3 3 3 5 7 8 6 6 6 5 5 5 5 5 5 5 4 4 4 4 3 3 3 3 3 3 2 2 2 2 3 2 2 2 2 2
0 3 4 7 8 7 7 7 6 8 8 7 8 8 9 6 5 5 5 5 6 5 5 5 5 5 5 5 4 3 3 3 3 3 3 3 2 2 3 3 2 2 2 3
0 3 3 6 6 7 9 9 8 9 9 10 11 12 6 5 4 5 5 5 5 6 6 6 6 6 5 5 4 3 3 3 3 3 3 3 3 3 3 3 2 3 3 3
2 1 2 4 3 5 8 8 9 7 7 6 9 8 6 6 5 5 5 5 5 6 6 6 5 5 4 4 4 3 3 3 3 3 3 3 3 3 3 3 3 3 3 3
2 2 2 3 3 6 6 1 3 5 7 6 6 5 5 5 4 4 2 4 5 5 6 5 4 5 4 4 4 3 3 2 2 3 3 3 3 3 4 3 3 3 3 3
2 3 2 2 4 8 4 1 1 2 5 3 5 6 5 4 4 2 3 4 4 4 5 4 4 4 4 4 4 4 3 3 3 3 3 3 3 3 4 4 3 3 3 3
1 2 3 3 4 6 2 1 1 2 4 2 2 4 4 4 3 3 3 4 4 5 4 4 4 4 4 4 3 3 3 3 3 3 3 4 3 3 3 3 3 3 3 3
3 4 5 6 6 7 1 2 2 2 4 2 1 2 2 2 3 3 3 3 3 4 4 4 3 3 3 3 3 3 3 3 3 3 3 3 3 3 3 3 2 3 3 3
7 5 6 5 6 8 3 3 4 4 2 1 2 2 2 3 3 3 3 3 3 4 4 4 3 3 3 3 3 3 3 3 3 3 3 3 3 3 3 2 3 3 2 2
7 6 5 7 7 3 4 4 3 1 2 2 2 3 3 3 4 3 3 3 3 3 4 3 3 3 3 3 3 3 4 3 3 3 3 3 4 3 3 2 2 2 2 2
4 2 3 5 7 4 4 3 2 2 2 2 2 3 2 4 4 4 3 3 3 3 3 2 2 3 3 3 3 3 3 3 3 3 3 3 3 3 3 2 2 2 2 2
4 5 4 7 6 4 4 3 2 2 2 3 3 3 3 4 4 3 3 3 2 3 2 2 2 2 3 3 3 3 3 3 3 3 3 3 3 3 3 3 3 3 2 3
5 7 6 6 3 2 3 2 2 2 3 3 3 3 3 3 4 3 2 2 2 2 2 2 2 2 3 3 3 3 3 3 2 3 3 3 3 3 3 3 3 5 5 6
Wind_Direction
184 220 246 262 254 272 284 280 278 282 289 288 270 272 268 254 251 255 256 261 266 253 266 306 315 319 325 306 308 284 257 271 303 271 244 254 263 278 277 256 207 181 182 178
231 241 276 288 278 278 278 280 284 293 309 298 280 277 267 249 237 241 255 272 275 287 279 300 318 338 313 310 310 291 256 261 265 260 257 249 252 252 255 256 206 184 184 194
240 299 316 301 303 296 285 272 278 295 312 288 283 276 248 229 207 222 236 254 274 286 286 292 304 312 317 312 308 299 278 264 250 254 254 308 291 278 274 262 200 199 204 197
268 295 303 304 308 306 282 305 299 294 299 283 290 287 249 217 225 250 304 319 296 297 298 291 301 322 321 313 310 292 273 268 240 212 227 223 251 259 280 260 231 205 209 210
292 331 316 299 301 299 283 306 288 276 268 275 246 250 270 193 234 248 298 323 329 314 325 317 313 318 330 326 306 286 277 259 224 198 222 232 259 273 298 280 224 214 222 206
266 285 334 320 306 296 302 295 273 255 243 256 228 215 275 216 226 241 278 358 353 351 343 334 327 344 346 347 292 249 283 291 243 219 239 228 267 282 283 273 228 219 244 220
283 212 169 324 320 313 318 322 321 293 230 245 215 211 247 40 37 48 32 10 6 351 336 324 322 334 331 332 316 251 252 274 264 267 272 255 262 250 248 253 236 240 245 247
303 277 159 143 309 300 286 288 228 267 274 292 271 233 210 84 52 40 30 16 358 339 333 324 317 323 332 335 327 308 265 298 302 300 300 278 262 241 244 262 261 246 240 244
318 295 46 116 288 302 305 273 278 278 276 267 248 212 168 60 31 20 9 0 348 341 339 333 333 336 346 344 335 313 276 327 336 20 354 312 290 302 305 275 266 267 255 254
317 291 288 286 236 272 313 315 326 240 279 280 273 246 264 350 337 353 354 343 337 345 345 341 344 342 351 352 347 331 338 352 4 42 19 336 325 315 303 293 286 279 273 254
302 269 280 244 214 232 216 300 284 268 270 277 291 290 28 73 31 353 341 338 339 343 341 343 346 350 357 359 8 7 3 15 24 42 20 358 342 328 319 304 281 276 283 264
312 284 274 257 171 71 209 238 193 236 277 265 273 273 42 52 50 19 346 341 344 349 351 354 350 357 2 2 9 11 2 11 13 28 16 1 341 342 332 325 317 305 292 289
310 219 297 287 173 59 280 282 274 261 278 259 256 267 16 14 7 11 355 341 340 345 354 358 357 2 358 354 1 358 5 13 16 19 2 359 350 351 340 341 340 339 327 320
335 231 222 241 266 274 265 266 243 221 231 257 247 274 303 326 340 348 350 339 338 343 352 354 352 354 353 351 353 2 3 12 10 8 359 1 1 350 340 338 339 337 326 321
220 250 252 267 275 272 261 251 234 228 232 242 268 283 294 311 326 331 334 335 340 344 348 351 349 349 350 356 359 357 358 6 9 5 359 358 6 355 343 343 340 336 333 331
229 260 285 272 261 268 268 252 238 241 245 254 273 280 295 315 327 332 339 336 337 339 346 349 348 348 350 350 347 347 346 357 2 1 354 354 5 357 340 335 341 344 342 337
204 216 264 270 307 309 268 235 216 226 228 233 251 267 311 325 331 326 326 330 335 340 347 347 340 340 340 338 340 341 335 349 0 358 350 352 355 348 337 337 348 347 338 328
190 208 237 285 318 255 247 178 190 228 247 241 259 289 306 311 312 303 319 345 345 344 340 337 340 340 339 341 343 339 342 358 358 354 352 352 350 344 340 344 343 339 330 321
200 201 241 251 269 272 258 208 164 212 269 242 250 282 304 327 319 306 5 5 347 339 334 335 341 338 338 342 345 351 353 0 359 353 349 347 346 341 339 341 339 332 329 327
187 200 221 234 250 259 256 120 107 103 276 287 256 287 313 345 316 296 350 357 348 346 344 342 340 343 345 343 353 355 350 1 352 344 342 339 340 336 330 332 327 324 325 318
175 203 218 230 245 262 241 151 124 182 261 329 355 318 309 273 259 289 327 339 341 339 336 338 342 346 341 342 355 351 348 352 346 347 346 343 345 338 329 332 328 327 329 326
185 191 203 207 230 251 162 146 188 225 287 323 324 316 303 293 301 314 320 322 333 337 335 339 345 343 340 350 360 350 343 348 356 355 354 349 349 341 338 346 341 338 337 333
205 201 199 206 224 234 174 198 215 233 278 298 312 312 311 304 301 305 308 312 321 325 329 338 342 336 343 354 2 352 342 352 354 357 356 353 349 343 340 347 344 339 340 341
221 180 225 260 259 256 236 228 235 237 255 286 295 299 302 293 296 300 305 307 312 322 328 336 339 340 344 351 357 347 344 350 358 358 351 351 355 349 348 343 336 339 342 346
213 173 222 254 265 273 249 231 246 262 265 277 286 282 275 278 286 286 291 295 302 315 320 329 336 337 339 348 355 350 351 354 3 356 350 351 354 351 351 351 349 342 344 344
201 194 203 235 236 231 261 266 287 275 273 271 280 286 282 272 274 279 280 287 304 313 323 336 342 342 338 345 351 353 353 358 2 354 355 353 352 351 351 353 358 6 1 0